This is the latest recevied weather packets stored in our database for station/object F4IDZ-11. If no packets are shown the sender has not sent any weather packets the latest 10 day(s).
| Time | Temp. | Humidity | Pressure | Rain* | Wind** | Luminosity | Snow |
|---|---|---|---|---|---|---|---|
| 1778097739 | 15.56° C | 56% | 993 hPa | - | - | - | - |
| 1778096844 | 16.11° C | 55% | 992.8 hPa | - | - | - | - |
| 1778095912 | 16.67° C | 55% | 992.5 hPa | - | - | - | - |
| 1778094979 | 17.22° C | 55% | 992.4 hPa | - | - | - | - |
| 1778094047 | 17.78° C | 54% | 992.3 hPa | - | - | - | - |
| 1778093114 | 18.33° C | 54% | 992.2 hPa | - | - | - | - |
| 1778092182 | 18.33° C | 54% | 992.2 hPa | - | - | - | - |
| 1778091249 | 18.89° C | 54% | 991.9 hPa | - | - | - | - |
| 1778090347 | 18.89° C | 54% | 991.9 hPa | - | - | - | - |
| 1778088534 | 19.44° C | 54% | 991.6 hPa | - | - | - | - |
| 1778087634 | 20° C | 54% | 991.6 hPa | - | - | - | - |
| 1778086733 | 20° C | 54% | 991.6 hPa | - | - | - | - |
| 1778085833 | 20° C | 54% | 991.5 hPa | - | - | - | - |
| 1778084933 | 20° C | 53% | 991.4 hPa | - | - | - | - |
| 1778084033 | 20° C | 54% | 991.4 hPa | - | - | - | - |
| 1778083133 | 20° C | 54% | 991.3 hPa | - | - | - | - |
| 1778082232 | 19.44° C | 54% | 991.3 hPa | - | - | - | - |
| 1778081332 | 20° C | 54% | 991.5 hPa | - | - | - | - |
| 1778080432 | 19.44° C | 54% | 991.4 hPa | - | - | - | - |
| 1778079532 | 19.44° C | 54% | 991.3 hPa | - | - | - | - |
| 1778078631 | 18.89° C | 55% | 991.4 hPa | - | - | - | - |
| 1778077952 | 18.89° C | 55% | 991.4 hPa | - | - | - | - |
| 1778077052 | 19.44° C | 55% | 991.4 hPa | - | - | - | - |
| 1778076152 | 19.44° C | 55% | 991.4 hPa | - | - | - | - |
| 1778075252 | 19.44° C | 54% | 991.5 hPa | - | - | - | - |
* Rain since midnight (hover to see other rain measurements)
** Current wind speed in m/s (hover to see current wind gust speed)